Regional Weather Roundup
Issued by NWS Sioux Falls, SD

Home | Current Version | Previous Version | Graphics & Text | Print | Product List | Glossary On
Versions: 1 2 3 4 5 6 7 8 9 10 11 12 13 14 15 16 17 18 19 20 21 22 23 24 25 26 27 28 29 30 31 32 33 34 35 36 37 38 39 40 41 42 43 44 45 46 47 48 49 50
000
ASUS43 KFSD 200802
RWRFSD

WEATHER ROUNDUP FOR SE SOUTH DAKOTA/SW MINNESOTA/NW IOWA
NATIONAL WEATHER SERVICE SIOUX FALLS SD
200 AM CST MON FEB 20 2017

NOTE: "FAIR" INDICATES FEW OR NO CLOUDS BELOW 12,000 FEET WITH NO
SIGNIFICANT WEATHER AND OR OBSTRUCTIONS TO VISIBILITY.


SDZ038>040-050-052>070-200900-
SOUTHEAST SOUTH DAKOTA

CITY           SKY/WX    TMP DP  RH WIND       PRES   REMARKS
BROOKINGS      CLOUDY    50  48  93 S10       29.68F
CHAMBERLAIN    CLOUDY    58  51  77 S12       29.58S
HURON          CLOUDY    53  49  86 S12       29.61R
MADISON        PTSUNNY   50  50 100 S8        29.69R
MITCHELL       CLOUDY    54  50  86 S14       29.64R
SIOUX FALLS    CLOUDY    54  51  90 S15       29.69F
WINNER         FAIR      59  49  69 S16       29.57F
YANKTON        CLOUDY    54  48  82 SE12      29.68S
$$

MNZ071-072-080-081-089-090-097-098-200900-
SOUTHWEST MINNESOTA

CITY           SKY/WX    TMP DP  RH WIND       PRES   REMARKS
FAIRMONT       CLOUDY    50  45  83 S17       29.81F
JACKSON        CLOUDY    50  45  81 S12G17    29.79F
LUVERNE        CLOUDY    50  46  87 S10       29.73F
MARSHALL       CLOUDY    53  49  86 SE16      29.70F
MONTEVIDEO     CLOUDY    54  48  82 S13G22    29.72F
PIPESTONE      CLOUDY    52  46  82 S18       29.70F
REDWOOD FALLS  CLOUDY    52  46  80 S17       29.74F
TRACY          CLOUDY    52  48  88 S15G23    29.72F
WINDOM         CLOUDY    52  46  82 S12G18    29.78S
WORTHINGTON    CLOUDY    52  49  89 S14       29.76F
$$

IAZ001>003-012>014-020>022-031-032-NEZ013-014-SDZ071-200900-
NORTHWEST IOWA

CITY           SKY/WX    TMP DP  RH WIND       PRES   REMARKS
CHEROKEE       MOCLDY    52  51  97 S8        29.78F
DENISON        CLOUDY    55  52  88 S17G23    29.77F
ESTHERVILLE    CLOUDY    50  47  89 S16       29.80F
LE MARS        CLOUDY    54  52  94 S9        29.77S
SHELDON        CLOUDY    52  52 100 SE12      29.74F
SIOUX CITY     CLOUDY    54  51  90 SE7       29.74F
SPENCER        CLOUDY    51  47  86 SE13      29.79F
STORM LAKE     CLOUDY    50  48  93 SE13      29.80F
$$

ABBREVIATIONS USED IN REMARKS
   TC - TEMPERATURE IN CELSIUS
  WCI - WIND CHILL INDEX
   HX - HEAT INDEX
  VSB - VISIBILITY





USA.gov is the U.S. government's official web portal to all federal, state and local government web resources and services.